Dewpoint
73 74 76 74 75 75 75 76 76 76 76 75 75 76 76 76 76 75 76 76 76 76 76 76 76 76 76 76 76 76 76 76 76 75 75 75 75 75 76 76 76 76 75 75 75 76 76 77 77 76 75 75 75 75 75 75 75 74 75 75 75 75 75 74 74 74 74 75 75 75 75 75 74 74 73 73 72 70 71 71 70 69 70 72 73
73 74 74 75 75 75 75 76 76 76 76 75 76 76 76 76 76 76 76 76 76 76 76 76 76 76 76 76 76 76 75 75 75 75 76 75 75 75 76 75 76 76 76 76 75 75 76 76 76 75 75 75 75 75 75 75 75 74 75 75 75 75 75 74 74 74 74 75 75 75 75 74 74 73 73 73 72 71 70 70 70 69 71 74 74
72 74 74 75 75 75 75 75 75 76 77 76 75 76 75 76 76 76 76 76 76 76 76 76 76 76 76 75 75 76 75 75 75 75 75 75 75 75 76 76 76 75 75 76 75 75 76 75 75 75 75 75 75 75 75 75 75 74 74 75 74 75 75 75 74 74 74 75 75 75 74 74 73 73 72 71 71 71 72 72 72 73 75 74 73
72 73 73 74 75 75 75 75 75 76 76 76 76 75 75 76 76 76 76 76 76 76 76 76 76 76 76 76 76 76 76 75 75 75 75 75 75 75 76 75 75 75 75 75 75 75 75 75 75 75 75 74 74 75 75 75 75 74 74 75 75 74 75 75 75 74 74 74 75 73 71 71 72 74 74 74 74 74 74 74 74 74 74 74 74
71 72 73 74 74 75 75 75 75 75 75 76 76 75 76 76 76 76 76 76 76 76 76 75 76 76 76 76 76 76 76 75 75 75 75 75 75 75 75 75 75 75 75 74 74 75 75 75 75 75 75 75 75 75 75 75 75 74 74 74 74 75 75 74 75 74 74 73 74 73 70 71 72 73 73 74 73 74 74 74 74 74 75 74 74
71 71 72 73 73 75 75 75 75 74 75 75 76 76 76 76 76 76 76 76 76 76 76 76 76 76 76 76 76 75 75 75 74 75 75 75 75 75 74 75 75 74 75 74 74 74 75 74 75 75 75 75 75 75 75 75 75 75 74 74 75 74 74 74 75 75 75 74 74 73 71 71 70 72 73 73 73 74 74 74 74 74 74 73 74
71 71 71 72 73 75 74 74 74 74 75 75 75 76 76 76 76 76 76 77 76 76 76 76 76 76 75 75 75 75 75 74 74 75 75 75 75 75 75 75 75 75 75 75 75 75 75 74 74 75 75 75 75 75 75 75 75 74 74 73 74 74 75 75 75 75 75 74 74 72 72 69 70 71 73 73 74 73 74 74 74 74 74 73 73
70 71 71 73 74 75 74 74 75 75 74 75 76 76 76 76 76 77 76 75 75 76 75 75 75 75 75 75 75 74 75 75 74 75 75 75 75 74 75 74 75 75 74 75 75 75 74 74 74 74 75 75 75 75 75 75 74 74 74 74 75 74 74 74 74 73 73 74 73 75 73 69 70 71 73 73 74 74 74 73 74 74 74 74 74
70 71 71 72 74 75 75 75 75 75 75 75 76 76 76 76 76 76 75 75 75 75 75 75 75 75 75 75 75 75 75 75 75 74 74 75 75 74 74 74 74 74 75 75 74 74 74 74 75 75 75 75 74 74 75 75 75 74 74 74 74 74 74 74 74 74 74 73 74 73 72 69 68 69 73 74 73 73 73 74 74 74 74 74 74
70 71 72 73 74 75 75 75 75 75 75 76 76 76 76 76 76 76 75 75 75 75 75 75 75 75 75 75 75 75 75 75 74 75 74 74 74 74 74 74 75 75 74 75 75 75 75 75 74 74 74 75 75 74 75 74 74 74 74 74 74 74 74 74 75 72 73 73 72 72 72 70 68 68 73 74 74 74 74 74 73 73 73 75 74
70 72 72 72 74 76 75 75 76 76 76 76 76 75 75 76 76 75 76 75 75 75 75 74 75 75 75 74 74 75 75 75 74 74 74 74 75 74 74 75 75 75 75 74 75 74 74 74 74 74 74 74 74 75 75 75 75 74 74 74 74 74 75 75 74 71 72 72 72 71 68 71 70 71 73 73 73 74 74 74 74 74 74 73 73
70 72 72 73 76 76 75 76 76 76 76 75 75 76 76 74 75 76 75 75 75 75 75 74 74 75 75 75 75 75 75 75 75 75 75 75 74 74 75 75 75 75 74 75 75 74 74 74 74 74 74 74 74 74 75 75 74 74 74 74 73 72 71 72 69 69 70 70 69 68 67 68 71 71 73 73 73 73 73 73 73 73 73 73 73
70 71 72 72 73 75 76 76 76 76 75 76 76 76 76 75 76 75 75 75 75 75 75 75 75 75 74 75 75 75 75 75 75 75 74 74 75 74 74 75 75 75 75 74 74 74 75 74 74 74 73 73 74 74 74 74 73 74 74 73 72 70 68 68 68 72 73 72 72 71 71 71 72 74 73 73 73 73 73 73 73 73 73 73 73
72 70 69 71 72 77 76 76 76 76 76 76 75 76 76 75 76 75 75 75 75 75 75 75 75 75 74 75 75 75 75 75 74 75 75 74 75 74 74 74 74 74 75 75 74 74 74 74 74 74 74 73 73 74 73 74 73 74 74 73 70 69 69 72 72 72 73 72 73 70 70 71 72 74 73 73 73 73 73 73 73 73 73 73 73
66 70 70 72 72 73 77 76 76 76 75 75 76 75 75 75 76 75 76 75 75 75 74 74 75 74 75 75 75 75 75 75 75 74 74 75 74 74 74 74 74 75 75 75 75 74 74 74 74 74 74 73 73 73 73 74 74 74 74 72 70 70 71 71 72 73 73 73 70 67 70 72 74 73 74 74 73 74 73 73 73 73 72 72 72
65 66 69 71 70 73 73 76 76 76 75 75 75 75 75 75 75 75 75 74 75 75 75 75 75 75 75 75 75 75 75 75 75 74 74 74 74 74 75 74 74 75 75 75 75 75 74 74 73 74 74 73 73 73 74 74 74 75 74 72 70 70 71 73 73 74 74 71 69 70 70 72 74 73 74 74 74 74 74 73 73 73 73 72 72
66 67 66 69 69 70 71 73 74 76 75 75 76 75 75 75 75 75 74 75 75 75 75 75 75 75 75 75 76 75 74 75 75 75 75 74 75 74 74 74 74 74 75 75 75 74 74 74 74 74 74 73 73 73 73 74 75 74 74 73 71 69 69 71 69 70 70 70 69 70 71 72 73 73 74 75 74 74 74 74 73 73 73 72 72
65 66 67 67 67 68 69 71 74 74 74 76 76 76 75 75 75 75 75 74 75 75 74 74 75 75 75 75 75 75 75 74 74 75 75 74 74 74 75 75 74 75 75 74 74 75 75 75 74 74 74 74 73 74 75 74 74 74 74 73 72 70 69 69 69 70 71 71 70 71 72 73 73 74 74 74 75 75 74 74 74 73 73 72 72
65 66 65 66 67 70 70 71 73 71 73 74 75 75 75 75 75 75 75 75 74 75 75 75 75 75 75 75 75 75 75 74 75 76 75 75 74 74 74 74 75 75 75 74 74 74 74 74 74 74 74 74 74 75 75 75 74 74 74 73 73 72 74 70 70 70 70 69 70 70 73 74 74 74 75 75 75 75 75 74 74 74 73 73 72
68 67 67 68 72 71 72 72 72 71 73 73 73 74 75 75 75 75 74 75 75 75 75 75 75 75 76 75 75 74 75 74 74 75 75 74 74 74 74 75 74 74 74 75 75 74 74 74 74 73 73 74 75 75 75 75 74 74 73 73 73 73 70 69 69 71 69 68 70 72 74 74 75 75 75 75 74 75 75 74 74 74 73 73 73
67 68 69 68 71 72 74 72 72 70 73 73 73 75 75 75 74 75 75 75 74 75 75 75 75 75 75 75 74 74 75 75 74 73 73 74 74 75 75 75 74 75 74 74 74 74 74 74 74 74 74 74 75 75 75 75 74 73 74 74 73 73 69 70 70 70 70 70 71 74 75 74 75 75 74 74 74 74 74 74 73 74 73 73 73
68 68 69 68 69 72 72 72 72 72 73 72 73 73 75 75 75 75 75 75 75 75 75 75 76 75 74 75 75 74 76 76 75 75 74 74 74 75 75 75 75 75 74 74 74 74 74 74 73 74 74 75 76 72 74 75 74 73 73 73 74 71 71 70 70 72 71 72 73 74 74 74 74 75 75 74 74 74 74 73 73 73 73 73 73
68 69 70 69 71 72 71 71 69 69 73 74 72 74 75 76 75 74 74 75 75 75 75 76 76 76 75 74 75 75 75 76 75 74 75 74 74 75 75 75 75 75 75 75 74 74 75 74 75 75 75 75 74 71 71 70 72 74 74 74 69 70 72 71 71 72 71 73 73 75 75 75 74 74 74 74 74 73 73 74 73 73 72 72 72
68 69 70 71 72 72 72 71 69 71 72 74 72 75 76 75 74 74 74 75 75 75 76 76 77 76 75 75 76 75 74 75 75 74 73 74 74 74 74 75 75 75 76 75 75 75 75 75 75 76 76 75 70 66 65 67 70 71 69 67 67 68 68 67 68 70 71 71 73 75 74 74 74 74 74 74 73 74 74 73 73 74 73 73 73
67 68 70 70 71 71 70 71 70 71 72 73 73 75 74 75 74 74 75 74 75 75 76 75 76 75 75 75 73 73 73 74 74 74 74 75 74 74 74 75 75 75 75 75 75 75 74 74 74 75 74 73 64 65 65 65 66 65 65 64 66 66 64 68 67 68 71 73 74 75 75 75 75 74 74 74 74 73 73 73 73 73 73 73 73
66 67 68 69 69 69 69 69 68 71 72 70 73 74 75 74 73 75 75 73 75 75 76 74 74 75 77 76 75 74 74 73 75 76 75 75 75 75 75 75 75 76 75 76 76 75 76 76 75 74 73 65 63 65 63 64 63 63 64 67 66 67 66 65 66 67 70 71 74 74 74 74 74 74 74 74 74 73 74 74 73 73 73 73 73
65 67 68 68 68 68 69 68 68 71 72 73 73 72 74 73 72 75 75 72 75 74 75 71 73 76 74 72 69 69 71 72 72 74 75 75 75 75 75 75 76 75 76 76 75 75 76 76 75 72 66 64 64 66 65 63 64 62 64 64 65 64 65 65 66 67 69 72 74 74 74 74 73 73 73 73 73 73 74 74 74 73 73 73 73
65 67 66 66 67 65 68 68 70 71 73 72 72 71 72 72 71 73 73 74 73 76 68 73 74 73 74 71 69 70 69 73 72 74 72 72 71 73 74 76 75 75 75 76 74 75 74 75 74 70 68 67 61 63 63 63 63 65 63 64 65 65 66 66 68 69 69 70 73 74 74 74 74 74 73 73 73 73 73 73 73 73 73 73 73
63 65 65 65 64 66 68 69 69 71 72 71 71 71 72 72 71 71 72 73 72 70 71 73 73 72 73 73 72 68 69 70 70 69 70 70 72 73 76 74 76 75 75 76 74 74 74 76 75 69 69 69 67 66 66 64 66 65 64 65 64 65 66 68 68 67 68 69 70 73 74 74 74 73 73 73 73 73 73 73 73 73 73 73 73
62 63 63 63 63 65 67 68 68 70 71 69 72 71 72 71 72 73 72 73 71 72 72 71 70 71 71 74 72 69 68 68 68 69 70 72 70 71 72 73 76 73 74 73 76 76 75 71 71 70 67 69 69 68 66 65 63 65 66 64 64 63 68 67 67 66 69 69 70 72 74 74 74 74 74 73 73 73 73 73 73 73 73 73 72
62 62 62 63 65 64 66 69 69 72 71 70 72 73 73 73 73 72 72 71 70 71 70 69 68 69 73 75 74 74 69 68 68 69 71 71 73 72 70 73 71 72 73 71 71 71 72 74 71 70 70 70 69 67 65 66 66 64 65 63 64 66 65 67 65 65 65 70 71 71 72 74 74 74 74 74 73 73 73 73 73 73 73 73 72
59 60 62 64 63 63 65 67 68 71 72 71 73 73 73 73 73 71 69 70 70 70 69 69 70 71 73 74 74 73 73 70 70 70 70 71 73 72 70 70 70 70 73 71 71 72 72 74 74 74 73 71 70 69 69 65 66 64 67 64 66 66 66 66 61 62 65 68 71 72 73 72 74 75 74 74 73 73 73 73 73 73 73 73 73
58 59 62 62 62 63 66 67 68 72 73 71 71 72 72 70 70 69 70 68 69 69 68 69 72 73 74 74 74 74 73 73 73 72 72 71 73 73 72 72 71 74 74 73 74 75 75 71 73 72 71 70 69 69 67 67 66 66 65 64 66 67 67 66 67 64 62 65 67 68 72 74 74 75 75 74 74 74 74 73 73 73 73 73 73
59 61 60 61 62 63 65 65 67 70 72 70 71 70 71 69 70 69 71 69 67 68 69 70 71 71 73 74 73 74 73 73 75 75 72 72 73 72 72 72 73 74 76 75 72 73 73 76 70 71 69 69 68 69 67 66 64 64 65 64 66 67 66 64 64 63 64 63 66 69 68 71 73 74 74 75 74 75 74 74 74 74 74 74 73
59 60 60 62 62 64 63 64 67 68 70 71 70 71 69 68 68 69 69 70 69 67 66 69 69 69 71 72 73 74 75 76 76 76 73 71 70 70 72 73 74 75 73 74 73 73 75 70 73 73 70 68 68 69 68 67 66 66 67 67 65 65 66 65 64 64 64 68 68 66 68 68 68 72 74 74 75 75 74 74 75 75 75 74 74
59 60 61 63 62 63 64 64 65 67 71 71 72 71 69 69 69 69 71 71 68 68 66 66 68 67 70 73 75 75 75 76 75 77 73 71 69 71 72 74 75 74 73 74 73 71 71 72 72 71 70 65 68 68 70 69 66 64 65 67 67 67 67 67 66 63 64 67 67 66 67 68 69 68 69 71 73 75 76 75 74 75 75 74 75
58 60 62 63 63 64 64 63 64 66 69 70 72 72 70 70 70 68 69 71 69 68 67 69 69 70 71 72 77 77 79 78 77 77 74 72 71 72 72 74 75 73 75 76 71 72 72 69 73 72 72 70 65 64 67 69 67 65 64 63 65 68 67 68 65 65 63 66 66 62 64 64 66 67 69 69 72 74 76 76 75 74 74 75 75
60 60 62 63 62 64 63 63 66 65 69 71 73 71 71 72 70 69 71 70 68 67 69 70 71 71 72 74 77 77 76 78 77 77 77 72 72 72 73 75 75 74 75 73 73 72 73 72 73 73 72 72 68 66 65 65 63 63 64 62 67 64 65 67 66 68 66 64 65 64 64 63 65 64 64 67 65 73 73 76 76 76 76 76 76
59 60 62 65 65 65 64 66 67 67 69 72 73 72 72 72 69 70 70 71 72 69 69 69 70 71 72 75 77 76 77 78 76 77 76 72 72 73 74 75 74 74 74 74 73 74 73 73 73 71 72 71 70 69 67 66 64 62 61 62 62 67 67 63 67 64 63 60 62 63 60 66 62 62 66 65 63 66 72 74 75 75 75 77 76
59 62 64 65 66 66 66 68 68 67 69 71 72 70 70 69 68 69 69 71 71 71 71 70 71 71 73 74 77 77 77 79 77 77 77 75 73 73 75 74 75 75 74 72 72 74 76 73 72 72 71 70 71 71 68 67 65 64 64 63 64 65 65 64 64 62 64 63 64 65 61 61 65 65 61 64 66 64 68 70 70 70 75 76 77
60 62 64 64 66 66 68 69 67 69 69 70 70 68 68 68 69 67 67 69 72 72 70 70 70 70 73 74 76 74 77 77 78 77 76 76 75 75 76 75 74 76 75 73 73 72 74 72 72 73 70 70 68 68 65 66 66 63 65 62 63 63 62 64 61 60 60 59 61 60 60 61 62 62 67 64 64 64 64 71 70 70 72 77 76
62 63 65 65 66 66 68 68 68 69 69 69 69 69 70 69 68 67 66 68 72 71 72 71 69 72 75 75 75 75 76 76 77 78 76 76 76 75 75 76 76 76 76 74 74 74 74 75 71 70 70 71 71 67 65 66 65 61 61 60 60 62 63 61 60 57 59 59 58 61 63 58 59 60 62 65 64 60 63 68 72 71 71 72 73
60 63 65 65 66 67 69 70 69 68 69 69 70 71 70 70 69 68 68 68 71 71 70 70 70 71 72 74 75 76 75 76 77 77 77 76 76 76 76 76 76 74 75 75 74 75 75 72 74 73 69 69 71 68 69 68 61 62 63 62 59 59 63 62 60 59 58 57 58 56 59 57 57 61 66 66 67 68 64 67 69 71 72 72 72
61 62 63 65 65 68 70 70 70 69 69 70 70 71 71 71 72 71 70 70 70 71 71 71 75 73 70 72 75 75 75 75 75 75 75 76 76 75 74 74 75 78 78 75 75 74 73 72 71 71 72 66 66 66 67 67 67 63 62 60 59 59 59 60 62 57 56 57 56 53 55 56 59 62 66 64 61 66 68 68 68 69 73 72 72
60 62 62 63 62 66 70 71 70 70 70 71 71 72 72 73 74 73 73 72 71 70 71 70 71 73 70 71 73 75 74 74 74 74 74 76 77 76 75 75 76 75 75 74 74 72 73 73 73 71 72 71 66 67 67 65 66 68 64 62 60 59 59 58 56 61 58 54 53 46 56 56 56 63 62 61 60 67 63 64 69 70 71 72 73
61 62 62 62 63 66 70 72 70 70 69 72 72 72 72 72 73 73 72 71 70 69 69 69 68 69 68 69 72 72 72 74 74 74 74 74 76 77 76 75 76 75 75 72 73 72 72 73 71 72 69 72 74 67 64 68 66 67 67 66 69 64 64 61 59 60 64 54 52 50 58 56 54 60 63 60 62 60 61 65 67 70 71 73 71
61 61 61 62 64 66 70 71 72 71 70 73 72 72 73 73 72 71 70 71 70 69 71 69 68 68 69 70 73 72 73 73 73 74 75 76 76 76 76 77 75 75 75 74 71 70 68 71 71 73 72 74 73 75 70 66 68 67 65 63 65 65 63 64 60 60 60 61 60 53 53 54 54 55 58 59 58 61 62 66 63 66 68 69 69
60 60 60 62 65 69 70 71 72 71 71 73 72 73 73 72 72 71 69 69 67 69 70 70 70 70 70 71 72 72 73 74 73 75 76 76 77 76 77 76 75 74 73 73 72 72 74 73 74 76 77 75 75 74 72 69 68 70 67 65 64 65 65 63 63 61 60 60 58 55 53 54 55 55 56 56 57 59 60 64 63 60 65 66 68
60 60 61 63 65 68 71 72 72 72 71 73 73 72 73 72 71 70 70 69 68 69 70 71 71 71 71 72 73 72 72 75 75 73 76 75 75 77 76 78 74 74 73 72 72 72 73 75 75 76 75 75 75 74 74 75 68 66 65 68 67 64 63 62 60 63 63 59 55 57 57 57 55 56 59 58 57 58 61 60 60 62 67 69 69
61 63 61 62 65 68 71 72 72 72 72 74 74 73 72 72 71 70 70 70 69 69 69 70 71 72 71 73 73 74 71 72 75 76 75 77 75 77 75 75 75 73 71 72 72 74 75 75 75 74 75 74 76 74 72 73 72 72 66 71 70 68 66 63 60 60 59 63 57 55 55 55 59 57 60 58 60 60 61 62 63 61 66 70 70
62 63 62 62 65 67 71 72 72 72 72 74 75 73 71 71 72 71 71 71 70 69 70 71 71 72 72 72 72 74 72 71 71 73 75 73 75 76 73 74 73 76 73 74 75 71 71 72 73 76 74 77 73 75 74 74 72 73 69 70 69 65 66 63 64 64 62 59 61 57 54 53 55 54 60 60 63 59 60 63 60 62 68 70 70